Location: Newark
(46.2358°N, 112.1211°W)
Time: 08:27:17
(UTC+00:00)

DELFI C3 - Pass Details

Date: 04 July 2020
Orbit: 533 x 552 km, 97.4° (Epoch: 12 August)

Event Time Altitude Azimuth Distance (km) Brightness Sun altitude
Rises 04:42:41 0° 221° (SW) 2,711 ? -10.9°
Reaches altitude 10° 04:47:01 10° 267° (W) 1,831 ? -11.4°
Maximum altitude 04:47:25 10° 273° (W) 1,825 ? -11.4°
Drops below altitude 10° 04:47:48 10° 278° (W) 1,833 ? -11.5°
Sets 04:52:12 0° 325° (NW) 2,740 ? -11.9°
